MAS787 VTSP-WMKK

Flight info

Callsign MAS787
Flight time 1h 15m
Altitude 41000
Route REBED1A REBED B579 VPL Y509 ANGUN Y508 NIREN NIREN1G
Aircraft A359/H-SDE2E3GHIJ3J4J5LM1ORWXY/LB1D1

Departure

Time 2026-05-07 22:34
Airport Phuket International Airport (VTSP)

Arrival

Time 2026-05-07 23:49
Airport Kuala Lumpur International Airport (WMKK)
Time Latitude Longitude Altitude Speed Heading
2026-05-07 22:08 8.10716 98.30501 88 ft 0 kts 105°
2026-05-07 22:24 8.10710 98.30524 91 ft 4 kts 105°
2026-05-07 22:24 8.10712 98.30518 92 ft 4 kts 104°
2026-05-07 22:25 8.10717 98.30491 88 ft 4 kts 98°
2026-05-07 22:25 8.10720 98.30464 88 ft 4 kts 91°
2026-05-07 22:25 8.10719 98.30438 88 ft 4 kts 78°
2026-05-07 22:25 8.10712 98.30414 91 ft 4 kts 56°
2026-05-07 22:26 8.10698 98.30398 90 ft 3 kts 19°
2026-05-07 22:26 8.10706 98.30400 91 ft 4 kts 14°
2026-05-07 22:26 8.10732 98.30407 91 ft 4 kts 14°
2026-05-07 22:26 8.10758 98.30415 91 ft 4 kts 14°
2026-05-07 22:27 8.10778 98.30420 91 ft 0 kts 14°
2026-05-07 22:30 8.10785 98.30422 91 ft 4 kts 13°
2026-05-07 22:30 8.10847 98.30437 91 ft 14 kts 14°
2026-05-07 22:31 8.10948 98.30464 91 ft 16 kts 14°
2026-05-07 22:31 8.11062 98.30494 91 ft 18 kts 14°
2026-05-07 22:31 8.11189 98.30527 91 ft 16 kts 21°
2026-05-07 22:31 8.11222 98.30598 91 ft 12 kts 83°
2026-05-07 22:32 8.11224 98.30617 90 ft 0 kts 84°
2026-05-07 22:33 8.11248 98.30879 94 ft 79 kts 84°
2026-05-07 22:33 8.11324 98.31672 96 ft 148 kts 84°
2026-05-07 22:33 8.11455 98.32806 576 ft 171 kts 82°
2026-05-07 22:34 8.11625 98.34057 1209 ft 190 kts 82°
2026-05-07 22:34 8.11763 98.35504 1598 ft 224 kts 86°
2026-05-07 22:34 8.11852 98.37153 2141 ft 246 kts 87°
2026-05-07 22:34 8.11969 98.38941 2743 ft 264 kts 86°
2026-05-07 22:35 8.12113 98.40845 3365 ft 280 kts 86°
2026-05-07 22:35 8.12256 98.42791 4505 ft 270 kts 86°
2026-05-07 22:35 8.12417 98.44610 5810 ft 256 kts 85°
2026-05-07 22:35 8.12616 98.46404 6705 ft 262 kts 84°
2026-05-07 22:36 8.12816 98.48276 7369 ft 274 kts 85°
2026-05-07 22:36 8.13002 98.50232 8087 ft 285 kts 85°
2026-05-07 22:36 8.13165 98.52258 8881 ft 293 kts 86°
2026-05-07 22:36 8.13325 98.54319 9782 ft 295 kts 86°
2026-05-07 22:37 8.13451 98.56371 10547 ft 293 kts 91°
2026-05-07 22:37 8.13169 98.58419 11346 ft 299 kts 109°
2026-05-07 22:37 8.12039 98.60221 12011 ft 312 kts 136°
2026-05-07 22:37 8.10133 98.61320 12724 ft 324 kts 161°
2026-05-07 22:38 8.07904 98.61636 13523 ft 332 kts 177°
2026-05-07 22:38 8.05565 98.61642 14249 ft 337 kts 178°
2026-05-07 22:38 8.03204 98.61654 14965 ft 341 kts 177°
2026-05-07 22:38 8.00813 98.61699 15681 ft 345 kts 177°
2026-05-07 22:39 7.98390 98.61764 16398 ft 350 kts 176°
2026-05-07 22:39 7.95947 98.61840 17108 ft 354 kts 176°
2026-05-07 22:39 7.93470 98.61924 17828 ft 357 kts 176°
2026-05-07 22:39 7.90961 98.62014 18442 ft 364 kts 176°
2026-05-07 22:40 7.88416 98.62109 18731 ft 378 kts 176°
2026-05-07 22:40 7.85737 98.62203 18985 ft 392 kts 176°
2026-05-07 22:40 7.82973 98.62301 19230 ft 404 kts 176°
2026-05-07 22:40 7.80132 98.62401 19596 ft 411 kts 176°
2026-05-07 22:41 7.77255 98.62514 20064 ft 415 kts 175°
2026-05-07 22:41 7.74390 98.62901 20560 ft 416 kts 166°
2026-05-07 22:41 7.71657 98.63861 21055 ft 418 kts 153°
2026-05-07 22:41 7.69166 98.65381 21565 ft 420 kts 144°
2026-05-07 22:42 7.66818 98.67161 22074 ft 423 kts 141°
2026-05-07 22:42 7.64526 98.69043 22581 ft 426 kts 140°
2026-05-07 22:42 7.62246 98.70976 23097 ft 429 kts 139°
2026-05-07 22:42 7.59984 98.72901 23545 ft 433 kts 139°
2026-05-07 22:43 7.57659 98.74863 23951 ft 436 kts 140°
2026-05-07 22:43 7.55314 98.76822 24365 ft 439 kts 140°
2026-05-07 22:43 7.52946 98.78782 24802 ft 441 kts 140°
2026-05-07 22:43 7.50556 98.80749 25258 ft 444 kts 140°
2026-05-07 22:44 7.48154 98.82721 25726 ft 447 kts 140°
2026-05-07 22:44 7.45733 98.84709 26225 ft 451 kts 140°
2026-05-07 22:44 7.43299 98.86709 26722 ft 454 kts 140°
2026-05-07 22:44 7.40835 98.88727 27219 ft 458 kts 140°
2026-05-07 22:45 7.38345 98.90764 27720 ft 461 kts 140°
2026-05-07 22:45 7.35846 98.92810 28237 ft 465 kts 140°
2026-05-07 22:45 7.33357 98.94848 28715 ft 468 kts 140°
2026-05-07 22:45 7.30816 98.96929 29196 ft 472 kts 140°
2026-05-07 22:46 7.28256 98.99027 29672 ft 475 kts 140°
2026-05-07 22:46 7.25675 99.01141 30098 ft 479 kts 140°
2026-05-07 22:46 7.23080 99.03267 30478 ft 482 kts 140°
2026-05-07 22:46 7.20462 99.05412 30868 ft 485 kts 140°
2026-05-07 22:47 7.17868 99.07535 31251 ft 488 kts 140°
2026-05-07 22:47 7.15227 99.09697 31625 ft 490 kts 140°
2026-05-07 22:47 7.12565 99.11877 31971 ft 493 kts 140°
2026-05-07 22:47 7.09894 99.14064 32318 ft 496 kts 140°
2026-05-07 22:48 7.07213 99.16258 32675 ft 498 kts 141°
2026-05-07 22:48 7.04511 99.18469 32997 ft 500 kts 141°
2026-05-07 22:48 7.03630 99.19189 33094 ft 501 kts 141°
2026-05-07 22:48 7.01378 99.21032 33364 ft 503 kts 141°
2026-05-07 22:49 6.98662 99.23254 33823 ft 502 kts 141°
2026-05-07 22:49 6.95993 99.25436 34242 ft 500 kts 141°
2026-05-07 22:49 6.93290 99.27647 34643 ft 499 kts 141°
2026-05-07 22:49 6.90597 99.29849 35018 ft 498 kts 141°
2026-05-07 22:50 6.87917 99.32041 35389 ft 498 kts 141°
2026-05-07 22:50 6.85212 99.34252 35786 ft 497 kts 141°
2026-05-07 22:50 6.82534 99.36440 36162 ft 496 kts 141°
2026-05-07 22:50 6.79855 99.38630 36538 ft 495 kts 141°
2026-05-07 22:51 6.77182 99.40814 36915 ft 494 kts 141°
2026-05-07 22:51 6.74501 99.43004 37303 ft 493 kts 141°
2026-05-07 22:51 6.71846 99.45174 37685 ft 492 kts 141°
2026-05-07 22:51 6.69185 99.47347 38072 ft 491 kts 141°
2026-05-07 22:52 6.66567 99.49485 38459 ft 490 kts 141°
2026-05-07 22:52 6.63913 99.51652 38775 ft 488 kts 141°
2026-05-07 22:52 6.61279 99.53802 39049 ft 488 kts 141°
2026-05-07 22:52 6.58639 99.55957 39325 ft 488 kts 141°
2026-05-07 22:53 6.56009 99.58104 39616 ft 487 kts 141°
2026-05-07 22:53 6.53379 99.60249 39900 ft 486 kts 141°
2026-05-07 22:53 6.50752 99.62393 40179 ft 485 kts 141°
2026-05-07 22:53 6.48169 99.64501 40447 ft 484 kts 141°
2026-05-07 22:54 6.45518 99.66662 40720 ft 483 kts 141°
2026-05-07 22:54 6.40239 99.70833 40827 ft 482 kts 142°
2026-05-07 22:55 6.34673 99.74480 40827 ft 481 kts 155°
2026-05-07 22:55 6.28394 99.76817 40830 ft 481 kts 162°
2026-05-07 22:56 6.21987 99.78823 40831 ft 481 kts 163°
2026-05-07 22:56 6.15605 99.80776 40830 ft 482 kts 163°
2026-05-07 22:57 6.09191 99.82764 40835 ft 483 kts 162°
2026-05-07 22:57 6.02760 99.84775 40837 ft 483 kts 162°
2026-05-07 22:58 5.96342 99.86786 40839 ft 483 kts 162°
2026-05-07 22:58 5.89926 99.88797 40837 ft 484 kts 162°
2026-05-07 22:59 5.83535 99.90806 40840 ft 484 kts 162°
2026-05-07 22:59 5.77080 99.92821 40837 ft 484 kts 162°
2026-05-07 23:00 5.70637 99.94833 40835 ft 485 kts 162°
2026-05-07 23:00 5.64193 99.96847 40832 ft 485 kts 162°
2026-05-07 23:01 5.58044 99.98770 40834 ft 485 kts 162°
2026-05-07 23:01 5.51598 100.00785 40841 ft 485 kts 162°
2026-05-07 23:02 5.45150 100.02800 40841 ft 485 kts 162°
2026-05-07 23:02 5.39754 100.04487 40840 ft 485 kts 162°
2026-05-07 23:03 5.33338 100.06491 40826 ft 485 kts 162°
2026-05-07 23:03 5.26892 100.08504 40828 ft 485 kts 162°
2026-05-07 23:04 5.20437 100.10520 40836 ft 485 kts 162°
2026-05-07 23:04 5.13998 100.12531 40825 ft 485 kts 162°
2026-05-07 23:05 5.07532 100.14472 40823 ft 485 kts 163°
2026-05-07 23:05 5.01030 100.16296 40823 ft 485 kts 163°
2026-05-07 23:06 4.94535 100.18121 40837 ft 484 kts 163°
2026-05-07 23:06 4.88365 100.19880 40823 ft 484 kts 163°
2026-05-07 23:07 4.81886 100.21740 40827 ft 484 kts 163°
2026-05-07 23:07 4.75405 100.23593 40840 ft 484 kts 163°
2026-05-07 23:08 4.68922 100.25446 40827 ft 484 kts 163°
2026-05-07 23:08 4.62416 100.27307 40844 ft 490 kts 163°
2026-05-07 23:09 4.55841 100.29188 40830 ft 497 kts 163°
2026-05-07 23:09 4.49152 100.31100 40830 ft 498 kts 163°
2026-05-07 23:10 4.42495 100.33003 40830 ft 497 kts 163°
2026-05-07 23:10 4.35873 100.34896 40836 ft 497 kts 163°
2026-05-07 23:11 4.29227 100.36789 40839 ft 497 kts 164°
2026-05-07 23:11 4.22472 100.38332 40837 ft 497 kts 167°
2026-05-07 23:12 4.15954 100.39783 40841 ft 497 kts 166°
2026-05-07 23:12 4.09218 100.41313 40846 ft 496 kts 166°
2026-05-07 23:13 4.02472 100.42855 40844 ft 496 kts 166°
2026-05-07 23:13 3.99184 100.43607 40420 ft 489 kts 166°
2026-05-07 23:13 3.95854 100.44371 39526 ft 493 kts 166°
2026-05-07 23:13 3.92495 100.45141 38670 ft 497 kts 166°
2026-05-07 23:14 3.89123 100.45914 37877 ft 497 kts 166°
2026-05-07 23:14 3.85732 100.46691 37037 ft 498 kts 166°
2026-05-07 23:14 3.82348 100.47460 36170 ft 501 kts 168°
2026-05-07 23:14 3.78929 100.48180 35270 ft 504 kts 169°
2026-05-07 23:15 3.75475 100.48913 34346 ft 508 kts 168°
2026-05-07 23:15 3.72021 100.49670 33557 ft 507 kts 167°
2026-05-07 23:15 3.68574 100.50441 32672 ft 506 kts 167°
2026-05-07 23:15 3.65128 100.51222 31661 ft 509 kts 167°
2026-05-07 23:16 3.61662 100.52013 30630 ft 512 kts 167°
2026-05-07 23:16 3.58220 100.52805 29570 ft 514 kts 166°
2026-05-07 23:16 3.54796 100.53848 28446 ft 513 kts 157°
2026-05-07 23:16 3.51686 100.55557 27565 ft 506 kts 144°
2026-05-07 23:17 3.49083 100.57887 26804 ft 498 kts 131°
2026-05-07 23:17 3.47135 100.60681 26545 ft 482 kts 119°
2026-05-07 23:17 3.45772 100.63725 26342 ft 478 kts 112°
2026-05-07 23:17 3.44495 100.66749 26131 ft 477 kts 114°
2026-05-07 23:18 3.43141 100.69828 25924 ft 476 kts 114°
2026-05-07 23:18 3.41811 100.72813 25722 ft 475 kts 114°
2026-05-07 23:18 3.40459 100.75833 25512 ft 474 kts 115°
2026-05-07 23:18 3.39112 100.78836 25309 ft 472 kts 115°
2026-05-07 23:19 3.37769 100.81822 25110 ft 471 kts 115°
2026-05-07 23:19 3.36423 100.84813 24904 ft 469 kts 115°
2026-05-07 23:19 3.35112 100.87800 24692 ft 468 kts 112°
2026-05-07 23:19 3.34254 100.90940 24496 ft 467 kts 99°
2026-05-07 23:20 3.33902 100.94161 24306 ft 464 kts 96°
2026-05-07 23:20 3.33646 100.97342 24109 ft 463 kts 95°
2026-05-07 23:20 3.33386 101.00549 23926 ft 461 kts 96°
2026-05-07 23:20 3.32892 101.03708 23910 ft 460 kts 104°
2026-05-07 23:21 3.31867 101.06741 23913 ft 460 kts 114°
2026-05-07 23:21 3.30308 101.09536 23777 ft 459 kts 123°
2026-05-07 23:21 3.28478 101.12159 23565 ft 460 kts 126°
2026-05-07 23:21 3.26598 101.14749 23331 ft 460 kts 126°
2026-05-07 23:22 3.24714 101.17336 23077 ft 458 kts 126°
2026-05-07 23:22 3.22842 101.19906 22817 ft 457 kts 126°
2026-05-07 23:22 3.20977 101.22467 22554 ft 455 kts 126°
2026-05-07 23:22 3.19115 101.25023 22305 ft 453 kts 126°
2026-05-07 23:23 3.17263 101.27566 22053 ft 451 kts 126°
2026-05-07 23:23 3.15419 101.30097 21662 ft 448 kts 126°
2026-05-07 23:23 3.13633 101.32546 20872 ft 446 kts 126°
2026-05-07 23:23 3.11774 101.35104 20177 ft 440 kts 126°
2026-05-07 23:24 3.09980 101.37568 19508 ft 434 kts 126°
2026-05-07 23:24 3.08233 101.39968 18838 ft 430 kts 126°
2026-05-07 23:24 3.06460 101.42403 18163 ft 425 kts 126°
2026-05-07 23:24 3.04747 101.44755 17398 ft 421 kts 126°
2026-05-07 23:25 3.03036 101.47104 16632 ft 417 kts 126°
2026-05-07 23:25 3.01330 101.49449 15897 ft 413 kts 126°
2026-05-07 23:25 2.99648 101.51758 15181 ft 408 kts 126°
2026-05-07 23:25 2.97989 101.54036 14488 ft 403 kts 126°
2026-05-07 23:26 2.96342 101.56296 13800 ft 399 kts 126°
2026-05-07 23:26 2.94717 101.58529 13184 ft 394 kts 126°
2026-05-07 23:26 2.93106 101.60744 12889 ft 393 kts 126°
2026-05-07 23:26 2.91495 101.62953 12829 ft 394 kts 126°
2026-05-07 23:27 2.88265 101.67382 12829 ft 391 kts 126°
2026-05-07 23:27 2.86705 101.69519 12824 ft 369 kts 126°
2026-05-07 23:27 2.85232 101.71528 12825 ft 347 kts 126°
2026-05-07 23:28 2.83845 101.73415 12824 ft 327 kts 127°
2026-05-07 23:28 2.82539 101.75197 12822 ft 309 kts 126°
2026-05-07 23:28 2.81291 101.76911 12831 ft 303 kts 126°
2026-05-07 23:28 2.79940 101.78529 12825 ft 304 kts 137°
2026-05-07 23:29 2.78257 101.79815 12826 ft 304 kts 146°
2026-05-07 23:29 2.76507 101.80971 12829 ft 306 kts 147°
2026-05-07 23:29 2.74726 101.82143 12831 ft 306 kts 146°
2026-05-07 23:29 2.72951 101.83320 12830 ft 306 kts 146°
2026-05-07 23:30 2.71170 101.84507 12832 ft 306 kts 146°
2026-05-07 23:30 2.69398 101.85691 12831 ft 306 kts 146°
2026-05-07 23:30 2.67662 101.86854 12828 ft 291 kts 146°
2026-05-07 23:30 2.66029 101.87953 12826 ft 275 kts 146°
2026-05-07 23:31 2.64488 101.88995 12826 ft 261 kts 146°
2026-05-07 23:31 2.62996 101.90006 12833 ft 258 kts 146°
2026-05-07 23:31 2.61511 101.91015 12839 ft 257 kts 146°
2026-05-07 23:31 2.60022 101.92019 12840 ft 257 kts 146°
2026-05-07 23:32 2.58553 101.93004 12828 ft 257 kts 146°
2026-05-07 23:32 2.57086 101.93987 12625 ft 251 kts 146°
2026-05-07 23:32 2.55628 101.94960 12247 ft 252 kts 147°
2026-05-07 23:32 2.54027 101.95678 11895 ft 256 kts 171°
2026-05-07 23:33 2.52296 101.95401 11655 ft 254 kts 210°
2026-05-07 23:33 2.51058 101.94201 11535 ft 245 kts 236°
2026-05-07 23:33 2.50127 101.92800 11380 ft 239 kts 238°
2026-05-07 23:33 2.49262 101.91402 11180 ft 234 kts 239°
2026-05-07 23:34 2.48378 101.90046 10952 ft 231 kts 236°
2026-05-07 23:34 2.47478 101.88728 10727 ft 228 kts 236°
2026-05-07 23:34 2.46595 101.87443 10495 ft 226 kts 236°
2026-05-07 23:34 2.45706 101.86157 10244 ft 224 kts 236°
2026-05-07 23:35 2.44573 101.85100 9906 ft 223 kts 208°
2026-05-07 23:35 2.43100 101.84751 9665 ft 217 kts 178°
2026-05-07 23:35 2.41676 101.85191 9380 ft 215 kts 148°
2026-05-07 23:35 2.40672 101.86279 9092 ft 214 kts 122°
2026-05-07 23:36 2.39869 101.87497 8863 ft 211 kts 130°
2026-05-07 23:36 2.38970 101.88655 8571 ft 212 kts 131°
2026-05-07 23:36 2.38052 101.89808 8293 ft 212 kts 131°
2026-05-07 23:36 2.37134 101.90956 8037 ft 211 kts 131°
2026-05-07 23:37 2.36219 101.92100 7778 ft 210 kts 131°
2026-05-07 23:37 2.35305 101.93241 7515 ft 209 kts 131°
2026-05-07 23:37 2.34393 101.94381 7248 ft 210 kts 131°
2026-05-07 23:37 2.33459 101.95548 6777 ft 220 kts 131°
2026-05-07 23:38 2.32506 101.96794 6272 ft 231 kts 125°
2026-05-07 23:38 2.31903 101.98303 5665 ft 245 kts 101°
2026-05-07 23:38 2.32117 102.00041 5039 ft 260 kts 68°
2026-05-07 23:38 2.33261 102.01466 4670 ft 276 kts 38°
2026-05-07 23:39 2.35049 102.02170 4530 ft 280 kts
2026-05-07 23:39 2.36968 102.01924 4522 ft 280 kts 339°
2026-05-07 23:39 2.38529 102.00804 4522 ft 278 kts 310°
2026-05-07 23:39 2.39365 101.99092 4541 ft 274 kts 283°
2026-05-07 23:40 2.39900 101.97330 4515 ft 257 kts 301°
2026-05-07 23:40 2.41092 101.96091 4512 ft 240 kts 323°
2026-05-07 23:40 2.42093 101.94869 4521 ft 219 kts 298°
2026-05-07 23:40 2.43006 101.93718 4523 ft 206 kts 322°
2026-05-07 23:41 2.44161 101.92886 4520 ft 205 kts 328°
2026-05-07 23:41 2.45363 101.92104 4526 ft 206 kts 328°
2026-05-07 23:41 2.46572 101.91329 4527 ft 206 kts 328°
2026-05-07 23:41 2.47767 101.90559 4525 ft 206 kts 328°
2026-05-07 23:42 2.48971 101.89774 4515 ft 207 kts 328°
2026-05-07 23:42 2.50168 101.88982 4519 ft 207 kts 327°
2026-05-07 23:42 2.51362 101.88181 4515 ft 205 kts 327°
2026-05-07 23:42 2.52538 101.87380 4509 ft 203 kts 327°
2026-05-07 23:43 2.53697 101.86584 4518 ft 202 kts 326°
2026-05-07 23:43 2.54844 101.85781 4504 ft 199 kts 326°
2026-05-07 23:43 2.55922 101.84975 4435 ft 187 kts 323°
2026-05-07 23:43 2.56963 101.84223 4179 ft 184 kts 327°
2026-05-07 23:44 2.57849 101.83647 3950 ft 184 kts 329°
2026-05-07 23:44 2.58675 101.83096 3733 ft 184 kts 325°
2026-05-07 23:44 2.59726 101.82377 3471 ft 181 kts 325°
2026-05-07 23:44 2.60741 101.81695 3239 ft 175 kts 326°
2026-05-07 23:45 2.61730 101.81030 3005 ft 165 kts 326°
2026-05-07 23:45 2.62653 101.80409 2799 ft 157 kts 326°
2026-05-07 23:45 2.63572 101.79790 2620 ft 161 kts 326°
2026-05-07 23:45 2.64510 101.79157 2397 ft 163 kts 326°
2026-05-07 23:46 2.65448 101.78525 2193 ft 163 kts 326°
2026-05-07 23:46 2.66370 101.77905 1966 ft 154 kts 326°
2026-05-07 23:46 2.67223 101.77317 1772 ft 145 kts 324°
2026-05-07 23:46 2.68030 101.76728 1589 ft 142 kts 324°
2026-05-07 23:47 2.68554 101.76345 1507 ft 142 kts 323°
2026-05-07 23:47 2.69637 101.75602 1384 ft 143 kts 329°
2026-05-07 23:47 2.70491 101.75079 1281 ft 144 kts 328°
2026-05-07 23:47 2.71328 101.74531 1045 ft 144 kts 328°
2026-05-07 23:48 2.71894 101.74162 923 ft 143 kts 327°
2026-05-07 23:48 2.72713 101.73634 718 ft 142 kts 327°
2026-05-07 23:48 2.73501 101.73084 468 ft 140 kts 324°
2026-05-07 23:48 2.74306 101.72549 256 ft 137 kts 328°
2026-05-07 23:49 2.75099 101.72029 107 ft 133 kts 327°
2026-05-07 23:49 2.75816 101.71551 86 ft 109 kts 326°
2026-05-07 23:49 2.76355 101.71190 66 ft 80 kts 326°
2026-05-07 23:49 2.76740 101.70928 65 ft 41 kts 323°
2026-05-07 23:50 2.76894 101.70745 65 ft 34 kts 295°
2026-05-07 23:50 2.76876 101.70635 69 ft 11 kts 191°
2026-05-07 23:50 2.76793 101.70665 65 ft 14 kts 146°
2026-05-07 23:50 2.76705 101.70724 63 ft 16 kts 146°
2026-05-07 23:51 2.76600 101.70795 67 ft 20 kts 145°
2026-05-07 23:51 2.76481 101.70876 62 ft 21 kts 146°
2026-05-07 23:51 2.76353 101.70961 65 ft 23 kts 146°
2026-05-07 23:51 2.76217 101.71051 65 ft 24 kts 146°
2026-05-07 23:52 2.76082 101.71141 68 ft 24 kts 146°
2026-05-07 23:52 2.75942 101.71234 67 ft 25 kts 146°
2026-05-07 23:52 2.75800 101.71330 84 ft 25 kts 146°
2026-05-07 23:52 2.75651 101.71431 80 ft 27 kts 146°
2026-05-07 23:53 2.75523 101.71518 85 ft 12 kts 146°
2026-05-07 23:53 2.75457 101.71541 72 ft 10 kts 197°
2026-05-07 23:53 2.75403 101.71483 69 ft 13 kts 235°
2026-05-07 23:53 2.75350 101.71405 82 ft 15 kts 236°
2026-05-07 23:54 2.75291 101.71315 84 ft 17 kts 237°
2026-05-07 23:54 2.75205 101.71273 84 ft 15 kts 160°
2026-05-07 23:54 2.75112 101.71329 84 ft 16 kts 147°
2026-05-07 23:54 2.75095 101.71341 85 ft 0 kts 147°
2026-05-07 23:55 2.75093 101.71342 85 ft 2 kts 148°
2026-05-07 23:55 2.75063 101.71343 82 ft 6 kts 182°
2026-05-07 23:55 2.75032 101.71322 84 ft 6 kts 225°
2026-05-07 23:56 2.75026 101.71314 85 ft 1 kts 231°
2026-05-07 23:56 2.75017 101.71304 83 ft 0 kts 235°
2026-05-07 23:56 2.75015 101.71301 83 ft 0 kts 234°